Temperature
25 24 23 24 27 29 30 34 35 34 34 33 33 33 33 31 29 28 28 27 25 24 24 23 22 22 21 21 20 20 20 20 20 20 20 20 19 19 19 19 19 19 19 19 19 20 20 20 20
25 23 25 27 29 27 30 34 33 33 33 33 33 33 33 30 29 28 27 26 24 24 24 23 23 22 21 20 20 20 20 20 20 20 19 19 19 19 19 19 19 19 19 19 19 19 20 20 20
25 24 27 31 29 27 31 34 33 34 33 33 33 32 31 30 28 27 27 26 23 22 23 24 23 22 21 20 20 20 19 19 19 19 19 19 19 19 19 19 19 19 19 19 19 19 19 19 19
24 27 29 32 31 32 34 34 34 34 34 33 33 33 29 27 28 27 26 25 23 22 22 23 22 22 21 21 20 20 19 19 19 19 19 19 19 19 19 19 19 19 19 19 19 19 19 19 19
27 29 32 32 33 34 35 35 34 34 34 34 33 32 28 27 27 27 26 25 23 22 21 23 22 22 21 21 20 20 20 19 19 19 19 19 19 19 19 19 19 19 19 19 19 19 19 19 19
29 32 32 32 33 35 35 34 34 34 34 33 33 32 27 27 27 26 26 25 24 22 21 22 22 22 21 21 21 20 20 20 19 19 19 19 19 20 19 19 19 19 19 19 19 19 19 19 19
30 31 32 33 34 34 35 35 34 34 34 34 33 33 28 27 27 27 26 26 25 23 22 22 22 22 22 21 21 20 20 20 20 19 19 19 19 20 20 20 20 19 19 19 19 19 19 19 19
30 31 32 33 35 34 35 35 35 34 34 33 33 32 28 28 27 27 26 26 25 24 22 22 22 22 22 21 21 21 20 20 20 20 20 20 20 20 20 20 20 19 19 19 19 19 19 19 19
30 31 31 33 34 34 34 35 35 34 34 33 33 32 30 28 28 27 26 26 25 24 22 22 21 22 22 21 21 21 21 20 20 20 20 20 20 19 19 19 19 19 19 19 19 19 19 19 19
31 31 32 35 35 35 34 34 35 35 35 33 33 31 29 28 27 27 26 26 25 24 23 22 21 21 21 20 20 21 21 21 21 20 20 19 19 19 18 19 19 19 19 19 19 19 19 19 19
32 32 33 34 34 34 34 34 35 35 35 33 32 30 29 28 27 27 27 26 25 24 23 23 22 21 21 21 20 20 20 20 20 20 19 19 19 19 19 19 19 19 19 19 19 19 19 19 19
32 33 33 33 33 33 33 34 34 35 34 33 32 31 30 28 28 27 27 26 25 24 23 22 22 21 21 21 21 20 20 20 20 19 20 19 19 19 19 19 19 19 19 19 19 19 19 19 18
32 32 32 33 33 33 33 33 34 34 34 33 32 31 30 30 29 27 27 26 24 23 23 23 21 20 20 21 21 21 20 21 20 20 20 20 19 20 19 20 20 19 19 19 19 19 19 19 19
32 32 32 32 32 33 33 33 33 34 33 32 32 31 31 30 29 28 27 25 24 23 22 22 21 20 20 20 21 21 20 21 20 21 20 20 20 20 20 20 19 19 19 19 19 19 19 19 19
31 31 31 32 33 33 33 33 33 33 33 32 31 30 29 28 28 27 26 25 24 23 22 22 21 20 20 20 20 20 20 20 20 21 21 20 20 20 20 20 19 19 19 19 19 19 19 19 19
31 31 30 33 34 33 32 31 33 33 32 31 31 29 27 26 25 24 24 23 23 23 22 21 21 20 20 20 20 19 19 20 21 21 21 20 20 20 19 19 19 20 20 19 19 19 19 19 19
31 30 31 33 34 33 32 31 32 31 31 31 30 28 26 24 23 22 22 22 22 22 21 21 21 21 20 20 20 20 20 20 20 21 21 21 20 20 19 19 19 20 20 20 19 19 19 19 19
30 31 32 33 33 32 31 31 32 32 31 30 29 27 26 24 23 22 21 21 21 21 20 20 20 20 20 19 19 19 19 20 20 20 20 20 20 20 19 19 19 19 19 19 19 19 19 19 19
30 30 30 32 33 31 30 30 31 32 31 30 29 27 25 24 22 21 21 21 20 20 20 20 19 19 19 19 19 19 19 19 19 19 19 19 19 19 19 19 18 18 18 19 19 19 19 19 19
30 30 30 31 32 31 30 30 31 31 31 29 28 27 25 23 22 21 20 20 20 20 20 19 19 19 19 19 18 19 19 19 19 19 19 19 19 19 18 18 18 18 18 18 18 19 19 19 19
29 29 29 29 29 29 29 29 30 31 30 27 26 25 25 24 23 22 22 21 21 21 20 20 19 19 19 18 18 18 18 18 18 18 19 19 19 19 18 18 18 18 17 18 18 18 18 18 18
28 29 29 28 27 27 28 27 29 30 28 27 26 25 25 24 24 23 23 22 21 21 20 20 19 18 18 17 17 17 17 17 17 18 18 18 18 18 18 18 18 17 17 17 17 17 17 17 17
28 29 28 28 27 27 28 27 29 29 26 26 26 25 25 25 24 24 23 22 21 21 20 19 19 18 17 17 16 16 16 16 17 17 17 17 17 17 17 17 17 17 17 17 16 16 16 16 16
29 28 28 28 28 26 27 26 27 28 27 26 26 26 25 25 24 24 23 22 21 20 20 19 18 17 17 16 16 16 16 16 16 16 16 16 17 17 17 16 16 16 16 16 16 15 15 15 15
28 26 25 26 26 26 25 25 27 28 28 28 27 26 25 25 25 24 23 22 21 20 19 18 17 17 16 16 16 16 16 16 16 16 16 16 16 16 16 16 16 15 15 15 15 15 15 14 14
27 26 25 24 25 26 27 27 29 29 28 27 27 26 26 25 25 24 23 22 21 20 19 18 17 16 16 15 15 15 15 15 15 15 15 15 15 16 16 15 15 15 15 15 14 14 14 14 14
27 27 28 26 25 25 27 28 28 28 27 27 27 26 26 25 25 24 24 23 21 20 19 17 16 15 15 15 15 15 14 14 14 14 15 15 15 15 15 15 15 15 14 14 14 14 14 14 14
28 27 26 25 24 24 25 26 26 26 26 27 27 26 26 26 25 24 23 22 21 19 18 17 15 15 15 14 14 14 14 13 14 14 14 14 14 14 14 14 14 14 14 14 14 14 14 14 14
27 27 26 26 25 23 23 25 28 27 27 27 27 26 25 25 24 24 23 21 20 19 18 16 15 15 14 14 14 13 13 13 13 13 13 13 13 13 14 13 14 14 14 14 14 14 14 14 14
28 27 26 24 24 24 24 25 28 27 27 27 26 26 25 24 23 23 22 21 20 19 18 16 15 15 14 14 13 13 13 12 12 12 12 12 12 12 12 13 13 13 13 13 14 14 14 14 14
Wind_Speed
12 13 10 7 5 5 2 11 14 16 15 14 11 8 11 17 13 8 10 19 25 23 22 22 19 17 16 15 14 14 14 14 13 12 11 10 8 7 6 6 6 6 6 7 7 7 7 7 8
12 15 10 6 3 4 2 13 16 14 10 8 8 8 12 15 11 8 11 19 24 21 21 21 20 18 17 15 14 14 14 14 13 12 11 10 8 7 6 6 5 5 5 5 5 5 5 5 5
12 15 7 6 2 3 4 13 12 11 9 7 7 11 9 8 9 7 12 18 22 19 19 21 20 19 17 16 15 14 13 12 12 11 11 10 9 8 8 7 6 6 5 5 5 4 5 5 5
9 7 7 8 4 4 9 11 7 10 9 7 6 10 10 6 5 9 14 18 21 19 19 21 19 19 18 16 15 14 13 12 11 11 10 10 9 9 9 8 7 6 6 6 5 5 5 5 5
10 7 10 7 2 7 10 9 4 7 6 7 6 14 9 7 9 12 14 18 19 18 20 21 19 18 17 16 15 13 13 12 11 10 10 10 10 10 9 9 8 7 7 7 7 7 7 7 7
6 9 12 8 3 5 9 6 1 5 6 4 4 12 8 9 10 13 14 15 18 19 20 20 19 17 16 15 14 13 13 12 11 10 10 9 9 10 10 10 10 9 9 8 8 8 9 9 8
10 12 15 13 4 5 6 3 2 4 4 8 5 8 11 12 12 13 13 12 16 19 21 17 18 17 16 15 15 14 13 12 12 12 11 11 11 11 11 11 11 11 11 11 10 10 10 11 11
9 9 16 16 7 7 7 4 3 3 6 6 4 8 13 13 13 14 12 11 15 18 21 17 18 17 16 15 15 15 14 13 13 13 13 13 13 14 14 15 15 14 13 12 12 12 13 13 14
11 9 14 13 8 9 8 6 3 1 3 3 1 8 16 16 14 15 13 11 12 15 18 18 18 16 16 16 18 17 15 15 14 14 15 14 14 16 17 19 20 19 17 16 15 16 16 16 17
10 12 16 10 11 9 7 6 7 5 5 7 4 13 17 16 13 13 13 13 11 13 15 14 16 15 13 14 16 15 15 15 15 14 16 15 15 15 14 20 23 23 21 19 18 18 18 17 15
13 16 17 16 11 10 9 10 8 8 5 8 7 12 13 15 11 10 12 12 11 10 12 13 12 14 12 7 11 10 11 13 16 17 16 15 14 12 11 9 15 19 19 16 17 18 15 15 15
14 15 15 13 12 13 12 11 10 10 6 10 9 7 9 13 13 12 11 11 12 9 11 12 11 11 9 7 8 8 7 6 9 14 15 12 6 6 6 3 9 12 13 12 11 9 14 14 14
10 13 16 15 12 13 14 14 14 12 5 7 6 2 2 6 10 12 12 11 12 10 9 10 10 9 7 6 4 7 7 7 9 10 14 13 8 10 9 5 4 6 7 7 7 6 7 7 6
12 11 12 15 16 14 15 14 15 15 5 3 3 1 2 1 4 9 10 9 11 12 10 10 10 9 8 7 6 6 6 4 7 7 12 16 10 7 7 6 6 5 6 6 5 7 6 6 6
9 13 16 19 19 15 12 13 15 15 5 1 2 2 6 10 7 3 6 8 9 10 9 8 11 10 9 10 10 10 9 9 7 6 10 14 13 7 7 6 6 5 6 6 4 5 5 6 7
13 15 18 20 16 8 5 12 9 4 2 1 2 2 7 8 7 7 5 2 2 6 7 8 10 12 12 10 8 9 10 9 7 6 8 11 12 10 7 7 7 5 4 3 3 3 4 4 5
16 17 19 17 10 6 7 9 3 1 1 3 2 2 6 5 3 3 2 3 5 5 3 5 7 5 6 9 8 9 8 8 6 5 4 7 10 11 7 7 6 5 5 4 5 4 3 3 4
12 13 11 8 7 4 5 12 12 5 4 4 2 1 2 1 2 1 2 4 4 5 4 4 6 7 6 5 6 7 9 8 7 7 6 6 5 8 6 7 7 6 6 6 5 5 4 4 5
12 13 14 12 3 3 8 13 17 16 7 6 3 2 1 1 3 1 2 3 2 3 3 3 4 5 5 5 5 6 7 7 8 9 9 7 7 6 7 8 6 7 8 8 7 6 7 6 6
11 11 12 12 9 10 12 16 17 19 15 5 2 1 2 3 4 4 4 3 2 2 3 4 4 4 5 5 5 5 7 7 7 7 9 8 8 7 9 8 8 8 8 8 8 7 7 6 6
10 11 12 14 17 17 20 22 22 22 8 9 5 3 1 4 5 6 5 2 1 1 3 5 4 4 6 6 6 7 6 7 9 9 8 9 10 9 9 10 9 9 9 9 9 9 10 9 7
9 11 13 13 16 17 19 19 18 6 13 10 7 7 6 3 3 2 1 2 4 4 4 4 4 5 5 6 8 9 10 10 10 9 8 9 10 11 10 10 9 9 8 8 9 10 9 9 7
9 13 15 17 18 20 20 17 16 3 13 9 7 7 6 4 2 2 3 3 4 5 6 6 6 5 6 7 9 10 12 11 10 9 10 9 9 10 10 9 8 8 8 8 8 7 7 6 5
8 11 17 19 18 18 12 13 9 4 11 14 11 8 5 4 5 4 4 3 3 4 5 6 7 7 8 9 10 10 12 12 13 13 12 10 8 8 9 9 8 8 7 7 6 6 5 4 3
7 10 10 11 7 4 3 8 6 7 9 9 8 6 3 4 5 4 4 4 4 5 5 4 6 7 8 10 10 11 11 11 11 11 11 10 9 8 8 8 8 7 6 6 4 4 3 3 3
7 8 9 10 12 15 13 10 2 9 7 5 2 3 5 6 6 4 3 4 3 4 4 4 6 7 9 11 10 9 9 7 7 8 8 8 7 7 7 8 8 8 7 6 5 4 4 4 4
7 8 10 11 14 16 11 8 4 8 3 1 4 6 7 7 7 7 6 3 4 5 4 4 5 6 8 9 8 7 6 5 6 6 6 5 5 5 5 6 7 7 7 6 5 4 6 5 5
9 9 7 7 9 12 13 12 5 3 4 5 5 8 9 9 10 9 5 5 5 4 2 1 2 4 5 6 6 5 5 6 6 7 8 7 6 5 3 1 2 3 4 4 4 5 6 6 5
10 11 10 10 10 12 16 12 11 10 8 8 9 9 10 12 14 9 5 4 4 3 3 2 2 2 3 3 3 4 5 6 6 7 8 8 8 9 7 5 3 2 3 4 5 6 6 7 6
12 10 11 11 13 15 17 17 11 7 9 10 10 10 9 10 10 8 6 4 4 4 4 4 3 3 2 2 2 3 3 4 5 6 7 8 8 8 8 6 4 1 2 3 4 6 7 7 8
Wind_Direction
265 258 246 263 260 270 309 76 65 63 60 64 51 34 41 49 47 78 123 123 115 124 132 134 133 131 131 136 145 147 146 144 144 144 142 138 135 130 129 127 124 118 113 112 113 113 114 117 120
278 272 255 250 255 324 22 78 69 64 62 75 73 44 56 65 63 100 119 118 120 126 138 139 137 135 133 134 141 148 149 148 147 146 145 146 148 151 153 155 152 145 137 134 135 137 137 139 144
269 265 267 248 169 172 92 84 87 95 75 52 73 65 52 58 82 117 123 129 123 128 136 136 142 138 138 138 140 145 149 150 150 150 152 155 162 171 172 170 172 169 162 160 163 167 168 172 179
275 263 237 258 309 61 85 99 118 108 93 64 44 78 71 54 89 126 134 134 122 131 135 141 146 144 144 145 146 148 151 155 158 160 164 170 177 184 181 176 182 187 185 183 184 190 195 200 205
266 264 267 285 14 67 74 86 74 69 63 55 45 87 81 85 104 120 141 136 132 139 135 146 150 150 150 151 153 156 159 162 167 171 176 183 189 193 191 187 192 199 204 207 207 205 208 213 219
277 284 295 315 1 70 85 87 11 62 75 80 34 97 99 114 119 136 147 148 142 141 135 146 152 155 158 160 163 167 168 170 176 182 187 190 191 193 197 199 202 205 209 217 220 215 216 219 224
283 300 297 291 270 102 61 24 48 40 43 49 23 85 121 136 135 144 146 158 146 139 134 149 156 161 166 169 172 176 179 181 186 193 199 202 203 205 207 210 213 215 213 211 216 222 227 231 234
285 296 293 297 289 94 75 336 46 0 92 63 355 73 130 131 147 141 145 165 149 142 141 154 160 164 170 175 180 185 192 195 199 204 208 210 212 215 216 215 216 218 217 215 217 223 231 237 242
270 269 279 305 348 75 61 346 4 203 129 144 190 82 119 134 145 144 155 168 156 151 147 161 162 165 174 180 182 188 198 206 209 215 219 219 222 220 215 221 216 214 215 216 218 224 231 237 245
239 263 274 313 341 356 28 329 327 294 230 187 180 119 128 138 150 159 163 170 164 155 158 164 164 165 182 191 173 187 198 203 210 216 212 214 227 238 227 212 212 209 213 215 219 224 230 236 246
248 260 282 304 329 327 320 307 312 299 329 58 70 128 139 138 155 173 173 174 164 164 166 167 160 160 186 194 166 190 201 196 200 220 218 213 224 232 239 209 199 206 212 217 221 222 227 232 233
251 272 289 295 302 303 298 297 301 303 348 63 60 96 138 154 168 179 178 176 162 178 178 170 160 163 196 204 186 190 200 189 192 204 216 214 211 236 233 207 185 197 208 212 221 207 215 227 237
256 268 275 279 275 273 275 277 283 281 305 66 60 64 178 202 178 176 173 175 162 178 192 168 162 165 190 231 243 208 209 203 201 206 204 218 208 214 227 218 201 212 222 205 210 215 216 222 237
283 287 280 283 277 270 267 267 269 270 260 72 53 314 295 265 172 159 161 166 164 177 192 176 171 180 192 209 230 266 252 219 227 207 202 206 217 212 213 207 201 209 230 249 208 212 219 224 230
269 280 273 262 251 247 255 264 263 265 257 253 299 57 43 25 18 58 143 161 176 179 195 188 185 192 201 215 218 230 240 247 236 222 212 200 210 213 213 217 212 213 220 230 228 227 226 231 233
258 256 260 258 236 223 236 268 283 302 278 332 323 52 79 47 19 24 39 70 231 208 195 197 214 202 201 215 229 239 241 243 242 229 219 209 214 214 216 220 219 207 199 204 214 227 244 257 260
246 243 254 258 188 209 245 275 284 77 8 343 345 12 93 87 26 6 341 269 270 272 229 205 242 250 210 213 231 248 263 270 275 262 236 217 214 215 216 230 230 220 216 209 220 209 213 248 267
303 297 272 265 128 130 283 292 286 242 194 256 265 111 98 130 128 80 283 260 240 259 251 246 258 276 284 266 255 259 265 269 270 271 275 268 237 223 217 229 231 237 243 228 215 218 220 226 235
319 314 318 313 353 327 294 287 289 290 257 235 233 142 131 107 99 71 287 288 270 292 298 278 275 286 285 279 275 271 271 272 274 275 271 269 263 248 231 246 240 228 240 240 225 217 225 226 222
291 294 291 291 323 319 299 286 279 272 260 205 185 161 178 166 166 190 219 240 262 300 318 305 297 312 302 286 286 274 274 272 266 260 265 261 259 255 248 238 248 244 244 244 234 225 227 227 214
283 298 308 322 325 312 298 284 274 260 190 131 151 174 191 165 169 177 188 179 248 320 313 308 334 314 304 307 296 283 275 265 262 254 247 241 241 240 241 245 246 248 246 246 236 228 229 231 222
283 313 329 312 298 289 287 290 289 256 147 154 157 157 152 148 154 144 66 29 336 333 323 332 318 292 284 284 280 281 280 275 273 273 265 253 242 240 239 241 241 242 243 244 243 234 229 230 231
305 316 306 288 278 276 274 274 280 210 151 150 159 165 164 170 220 255 278 295 311 325 332 327 314 307 297 282 275 273 273 272 274 275 272 263 254 244 240 236 236 240 241 242 242 239 223 218 221
303 298 286 271 261 263 299 314 305 79 145 157 169 178 182 229 249 246 257 281 310 321 319 319 332 331 323 307 293 280 275 276 278 280 281 279 267 249 234 226 228 233 233 235 235 224 204 190 213
286 296 304 311 300 263 292 283 284 134 131 150 164 174 214 267 279 281 300 307 300 298 298 317 333 334 325 314 305 297 289 284 280 281 282 281 274 259 236 223 217 217 215 212 200 195 184 181 204
282 273 287 314 318 318 305 289 325 115 111 115 150 236 267 279 278 284 286 271 292 308 325 348 352 337 329 322 317 314 312 307 305 304 296 288 279 267 248 225 216 211 207 203 192 191 195 195 209
283 279 308 313 298 293 298 322 81 101 92 197 246 258 267 283 297 290 282 321 354 350 359 356 348 339 333 331 333 339 353 357 348 339 326 315 304 287 262 227 214 209 203 200 189 200 205 198 200
242 285 307 299 299 302 307 316 12 40 281 258 288 307 298 298 308 310 340 351 350 344 332 309 327 328 331 337 342 2 13 17 15 16 13 4 358 353 354 264 195 185 182 180 182 198 194 175 178
259 248 263 282 290 297 299 299 314 334 325 312 317 319 322 327 328 324 334 331 327 316 282 227 245 273 306 331 350 3 11 18 19 20 17 17 19 20 25 23 51 124 155 170 176 175 164 155 153
280 274 286 285 283 282 285 290 305 346 329 321 321 325 335 336 325 316 312 318 317 299 276 251 237 242 242 263 307 344 1 13 20 23 19 16 18 16 13 11 354 309 140 144 131 123 119 113 104
Height
1502 1500 1500 1503 1499 1496 1488 1472 1466 1471 1475 1479 1481 1480 1480 1487 1495 1506 1506 1507 1506 1508 1513 1517 1521 1524 1527 1529 1531 1534 1537 1539 1541 1543 1544 1546 1548 1549 1550 1551 1552 1553 1554 1554 1555 1556 1556 1557 1558
1502 1501 1505 1503 1500 1511 1490 1470 1475 1479 1481 1481 1482 1482 1483 1492 1498 1503 1506 1508 1508 1509 1514 1517 1521 1524 1527 1530 1532 1535 1537 1540 1542 1543 1545 1547 1548 1549 1550 1551 1552 1553 1554 1555 1555 1556 1557 1557 1558
1502 1502 1504 1493 1494 1507 1487 1473 1476 1478 1481 1481 1482 1486 1490 1497 1502 1504 1507 1510 1510 1511 1515 1518 1521 1524 1528 1531 1533 1535 1538 1540 1542 1544 1545 1547 1548 1549 1550 1551 1552 1553 1553 1554 1555 1556 1556 1557 1557
1504 1504 1499 1489 1490 1478 1472 1473 1474 1475 1480 1482 1481 1485 1495 1501 1503 1505 1507 1510 1511 1513 1515 1519 1522 1525 1528 1531 1534 1536 1538 1540 1542 1544 1545 1546 1547 1548 1549 1550 1551 1552 1553 1554 1555 1555 1556 1556 1557
1507 1502 1491 1487 1481 1472 1470 1473 1475 1476 1480 1481 1482 1487 1498 1502 1503 1505 1508 1511 1512 1515 1516 1519 1522 1526 1528 1531 1534 1536 1538 1540 1542 1543 1544 1546 1547 1547 1548 1549 1550 1551 1552 1553 1554 1554 1555 1555 1555
1505 1496 1494 1492 1481 1471 1472 1477 1476 1477 1480 1482 1482 1486 1498 1502 1504 1506 1509 1511 1513 1515 1515 1520 1522 1525 1528 1530 1533 1535 1537 1539 1541 1542 1543 1545 1545 1546 1547 1548 1549 1550 1551 1552 1553 1554 1554 1554 1554
1507 1499 1494 1486 1479 1475 1476 1476 1477 1479 1481 1482 1484 1485 1498 1502 1504 1506 1509 1512 1514 1516 1515 1520 1522 1525 1527 1529 1531 1533 1535 1537 1539 1541 1542 1543 1544 1545 1546 1547 1548 1548 1549 1550 1551 1552 1553 1553 1553
1505 1500 1493 1482 1476 1476 1476 1477 1477 1479 1481 1486 1487 1487 1497 1501 1504 1506 1509 1512 1514 1515 1514 1518 1520 1523 1525 1527 1530 1532 1534 1536 1537 1539 1540 1541 1542 1543 1544 1545 1546 1547 1547 1548 1549 1550 1551 1551 1551
1505 1504 1498 1485 1477 1477 1478 1479 1477 1481 1482 1486 1487 1489 1493 1499 1503 1506 1509 1511 1514 1516 1515 1516 1519 1521 1524 1526 1528 1531 1532 1534 1536 1537 1539 1540 1540 1541 1541 1542 1543 1544 1545 1546 1546 1547 1547 1548 1548
1501 1501 1491 1481 1479 1478 1480 1482 1479 1478 1478 1481 1484 1488 1492 1497 1501 1504 1507 1510 1512 1515 1516 1518 1519 1520 1523 1526 1527 1529 1531 1532 1534 1535 1536 1537 1538 1539 1540 1540 1541 1541 1542 1542 1542 1543 1543 1544 1544
1496 1495 1488 1483 1482 1482 1483 1482 1480 1478 1478 1481 1486 1490 1492 1496 1500 1504 1506 1508 1511 1513 1516 1518 1519 1519 1522 1526 1526 1527 1529 1530 1531 1533 1534 1535 1536 1537 1538 1538 1538 1538 1539 1539 1538 1539 1540 1540 1540
1493 1491 1488 1487 1487 1487 1485 1484 1482 1480 1480 1483 1487 1491 1493 1495 1498 1502 1504 1507 1509 1511 1514 1516 1517 1517 1520 1523 1525 1525 1527 1528 1528 1529 1531 1532 1533 1534 1535 1536 1536 1535 1535 1535 1535 1536 1536 1537 1538
1491 1491 1490 1487 1487 1487 1486 1484 1483 1481 1481 1484 1488 1491 1493 1494 1495 1499 1502 1505 1507 1509 1512 1513 1513 1515 1517 1519 1521 1523 1525 1526 1526 1526 1526 1528 1529 1530 1531 1532 1533 1533 1534 1533 1533 1533 1534 1534 1535
1491 1489 1488 1487 1485 1484 1483 1482 1482 1480 1480 1483 1487 1491 1492 1493 1495 1497 1500 1503 1505 1507 1510 1511 1511 1512 1514 1516 1517 1519 1521 1523 1524 1523 1523 1523 1524 1526 1527 1528 1528 1528 1529 1530 1530 1529 1530 1530 1531
1493 1493 1489 1483 1480 1479 1480 1482 1479 1478 1478 1482 1486 1489 1493 1495 1497 1499 1500 1502 1505 1506 1508 1510 1510 1511 1512 1513 1515 1516 1517 1519 1520 1520 1520 1519 1519 1520 1521 1521 1522 1522 1523 1524 1525 1525 1525 1525 1525
1490 1490 1489 1475 1471 1475 1483 1488 1476 1476 1478 1482 1487 1490 1494 1497 1499 1501 1502 1503 1504 1506 1507 1508 1510 1510 1510 1511 1512 1513 1515 1516 1516 1517 1517 1516 1516 1516 1516 1516 1516 1516 1516 1517 1518 1519 1520 1520 1521
1487 1490 1483 1470 1466 1472 1479 1484 1478 1478 1481 1484 1488 1492 1495 1498 1501 1502 1503 1503 1504 1505 1505 1506 1507 1508 1508 1508 1509 1509 1510 1511 1511 1512 1512 1512 1511 1511 1511 1511 1511 1512 1511 1511 1512 1513 1514 1515 1516
1488 1479 1473 1470 1468 1476 1483 1483 1478 1477 1480 1484 1488 1492 1495 1499 1501 1502 1503 1503 1503 1504 1504 1504 1505 1505 1506 1506 1506 1506 1506 1506 1507 1507 1507 1508 1507 1507 1507 1507 1508 1508 1508 1507 1507 1507 1508 1510 1511
1486 1484 1483 1475 1469 1478 1485 1486 1479 1475 1476 1480 1486 1491 1496 1499 1501 1503 1503 1503 1503 1503 1503 1502 1502 1502 1502 1503 1503 1502 1502 1502 1502 1502 1502 1502 1502 1502 1502 1502 1503 1502 1503 1502 1502 1501 1502 1503 1505
1488 1489 1486 1477 1472 1478 1483 1483 1477 1474 1473 1477 1484 1489 1495 1498 1500 1502 1503 1503 1503 1503 1502 1501 1501 1500 1499 1499 1499 1498 1497 1497 1496 1496 1495 1495 1496 1496 1496 1496 1496 1496 1496 1496 1495 1495 1496 1496 1498
1489 1490 1488 1488 1484 1483 1487 1484 1472 1463 1468 1478 1484 1490 1494 1497 1499 1501 1502 1503 1503 1502 1502 1501 1499 1498 1497 1496 1494 1493 1492 1491 1490 1489 1489 1488 1488 1488 1489 1489 1489 1489 1489 1488 1488 1488 1489 1489 1490
1495 1487 1489 1492 1497 1496 1489 1493 1473 1462 1470 1478 1484 1489 1493 1496 1498 1500 1501 1502 1502 1502 1501 1499 1497 1495 1493 1492 1490 1489 1487 1485 1484 1484 1482 1482 1481 1481 1480 1480 1480 1480 1480 1480 1480 1479 1480 1481 1482
1491 1489 1491 1492 1493 1493 1485 1487 1472 1459 1474 1481 1487 1489 1492 1494 1497 1498 1500 1500 1500 1500 1498 1497 1495 1492 1490 1488 1486 1484 1481 1479 1477 1476 1475 1474 1473 1472 1472 1472 1472 1472 1471 1471 1472 1472 1472 1473 1474
1489 1492 1490 1485 1485 1497 1489 1491 1481 1470 1473 1480 1484 1488 1491 1493 1494 1496 1497 1497 1497 1496 1495 1494 1491 1489 1486 1484 1481 1478 1475 1473 1471 1469 1467 1466 1465 1464 1464 1464 1464 1464 1464 1464 1464 1465 1465 1466 1467
1492 1502 1508 1502 1494 1497 1492 1492 1480 1469 1467 1473 1479 1484 1488 1490 1491 1492 1493 1494 1493 1493 1491 1490 1487 1484 1481 1478 1475 1472 1469 1466 1464 1462 1460 1459 1458 1457 1456 1457 1457 1457 1457 1457 1458 1459 1459 1460 1462
1494 1499 1514 1520 1513 1498 1485 1481 1467 1464 1469 1474 1479 1482 1485 1487 1488 1488 1489 1489 1489 1489 1487 1485 1482 1480 1477 1473 1470 1466 1462 1460 1457 1455 1454 1452 1451 1450 1450 1450 1451 1451 1452 1453 1453 1454 1456 1457 1459
1495 1494 1489 1499 1501 1502 1486 1473 1467 1470 1473 1476 1478 1480 1481 1483 1484 1484 1485 1485 1485 1485 1484 1481 1479 1476 1473 1470 1465 1461 1458 1455 1453 1451 1449 1447 1445 1444 1444 1444 1445 1447 1448 1449 1450 1452 1454 1456 1458
1489 1490 1496 1505 1515 1514 1498 1487 1484 1478 1476 1474 1475 1476 1478 1479 1480 1480 1481 1481 1482 1481 1480 1478 1476 1474 1470 1467 1463 1460 1457 1454 1451 1448 1446 1444 1442 1441 1440 1440 1442 1443 1444 1446 1448 1450 1452 1455 1457
1487 1491 1493 1495 1499 1513 1515 1499 1471 1472 1472 1472 1473 1474 1475 1476 1477 1477 1477 1478 1478 1478 1477 1475 1473 1471 1468 1465 1462 1459 1456 1453 1451 1448 1446 1443 1442 1440 1439 1439 1440 1441 1443 1445 1447 1449 1451 1454 1456
1479 1484 1489 1502 1503 1498 1503 1495 1468 1470 1470 1470 1471 1472 1474 1475 1475 1474 1474 1474 1475 1475 1474 1473 1471 1469 1466 1464 1461 1459 1456 1454 1451 1449 1446 1445 1443 1441 1441 1440 1441 1442 1444 1446 1448 1450 1452 1454 1456